[[{"header":{"parameterUnit":"m.s-1","parameterCategory":1,"la1":30.2992,"la2":30.254,"lo1":-89.0895,"lo2":-89.0443,"dy":0.0025,"dx":0.0025,"nx":19,"ny":19,"refTime":"2026-05-24T09:00:00:Z","depth":0,"parameterNumber":2,"parameterNumberName":"U-component_of_WINDS"},"data":[0,0,0,-0.6999,-0.7007,-0.7462,-0.7464,-0.7992,-0.7996,0,0,0,0,0,0,0,0,0,0,0,-0.6828,-0.683,-0.6998,-0.7008,-0.7462,-0.7465,-0.7991,-0.7996,0,0,0,0,0,0,0,0,0,0,0,-0.6827,-0.683,-0.6832,-0.701,-0.7462,-0.7465,-0.799,-0.7667,0,0,0,0,0,0,0,0,0,0,-0.7235,-0.7042,-0.6829,-0.6833,-0.7012,-0.7461,-0.7465,-0.7653,-0.7687,-0.7762,0,-0.7815,0,-0.7913,-0.8028,-0.8029,0,0,0,-0.7036,-0.7013,-0.7167,-0.6833,-0.7016,-0.746,-0.7265,-0.7673,-0.7712,-0.7807,-0.7824,-0.7845,-0.7922,-0.8031,-0.8033,-0.836,-0.836,0,0,-0.7011,-0.6891,-0.714,-0.7191,-0.7113,-0.725,-0.7279,-0.7697,-0.7708,-0.7826,-0.7858,-0.7931,-0.8034,-0.8038,-0.836,-0.836,0,0,0,-0.692,-0.6872,-0.7018,-0.7167,-0.7253,-0.7263,-0.7296,-0.769,-0.7747,-0.7864,-0.7937,-0.8037,-0.8042,-0.836,-0.836,-0.8253,0,0,0,-0.6906,-0.682,-0.7006,-0.6937,-0.7244,-0.7477,-0.7277,-0.7718,-0.7769,-0.7934,-0.8037,-0.8047,-0.836,-0.836,-0.8256,-0.8223,0,0,0,-0.6811,-0.6809,-0.6862,-0.693,-0.7121,-0.7473,-0.7555,-0.7732,-0.7812,-0.803,-0.8048,-0.836,-0.836,-0.8258,-0.8227,-0.8274,0,0,0,-0.6675,-0.6763,-0.6858,-0.6985,-0.7116,-0.7401,-0.7554,-0.7774,-0.7947,-0.8039,-0.836,-0.836,-0.8259,-0.823,-0.8275,-0.829,-0.8285,0,0,-0.6719,-0.6764,-0.6848,-0.6946,-0.7183,-0.7341,-0.7566,-0.784,-0.7973,-0.8224,-0.8234,-0.8255,-0.8228,-0.8274,-0.8298,-0.8292,0,0,0,-0.6821,-0.688,-0.6969,-0.7126,-0.7335,-0.7512,-0.7764,-0.7866,-0.8085,-0.8076,-0.8288,-0.8276,-0.8308,-0.8321,-0.8316,-0.8352,-0.8361,-0.8361,-0.8361,-0.6713,-0.6874,-0.7023,-0.7238,-0.7389,-0.7646,-0.7785,-0.7967,-0.8088,-0.8135,-0.8211,-0.8205,-0.8216,-0.8213,-0.8248,-0.8232,-0.8232,-0.8232,-0.8231,-0.6792,-0.69,-0.7056,-0.7256,-0.7426,-0.7598,-0.785,-0.7929,-0.8116,-0.8162,-0.8199,-0.8234,-0.8202,-0.8242,-0.8225,-0.8226,-0.8227,-0.8227,-0.8228,-0.6739,-0.6819,-0.6938,-0.7181,-0.7351,-0.7568,-0.7738,-0.7889,-0.8033,-0.8068,-0.8165,-0.8167,-0.8188,-0.8103,-0.8103,-0.8103,-0.8103,-0.8103,-0.8103,-0.6637,-0.6775,-0.6898,-0.7125,-0.7245,-0.7423,-0.7681,-0.7805,-0.7982,-0.8078,-0.808,-0.8195,-0.8169,-0.8158,-0.8104,-0.8104,-0.8104,-0.8104,-0.8104,-0.6658,-0.6677,-0.6866,-0.6985,-0.7264,-0.7422,-0.7612,-0.785,-0.7975,-0.8054,-0.8163,-0.8118,-0.8176,-0.8181,-0.8174,-0.8127,-0.8127,-0.8127,-0.8127,-0.6613,-0.6656,-0.6883,-0.7064,-0.726,-0.7448,-0.766,-0.7862,-0.8074,-0.8162,-0.8191,-0.8194,-0.8191,-0.8252,-0.8255,-0.825,-0.8224,-0.8224,-0.8225,-0.6635,-0.6703,-0.6852,-0.7056,-0.7285,-0.7478,-0.7682,-0.7887,-0.8133,-0.8232,-0.8234,-0.823,-0.8237,-0.8231,-0.8329,-0.8331,-0.8326,0,0]},{"header":{"parameterUnit":"m.s-1","parameterCategory":1,"la1":30.2992,"la2":30.254,"lo1":-89.0895,"lo2":-89.0443,"dy":0.0025,"dx":0.0025,"nx":19,"ny":19,"refTime":"2026-05-24T09:00:00:Z","depth":0,"parameterNumber":3,"parameterNumberName":"V-component_of_WINDS"},"data":[0,0,0,4.6394,4.6399,4.6664,4.6665,4.6988,4.6991,0,0,0,0,0,0,0,0,0,0,0,4.631,4.6312,4.6393,4.64,4.6664,4.6665,4.6988,4.6991,0,0,0,0,0,0,0,0,0,0,0,4.6309,4.6311,4.6314,4.6401,4.6664,4.6665,4.6987,4.6792,0,0,0,0,0,0,0,0,0,0,4.6537,4.6455,4.631,4.6314,4.6402,4.6663,4.6665,4.6783,4.6804,4.6863,0,4.6917,0,4.6959,4.7012,4.7013,0,0,0,4.6403,4.6437,4.6514,4.6314,4.6405,4.6663,4.6546,4.6795,4.6819,4.6891,4.6922,4.6934,4.6965,4.7014,4.7016,4.7351,4.7352,0,0,4.6388,4.6354,4.6497,4.653,4.6492,4.6537,4.6554,4.681,4.6839,4.6923,4.6942,4.697,4.7016,4.7019,4.735,4.7351,0,0,0,4.6344,4.6343,4.6414,4.6516,4.6565,4.6545,4.6564,4.6828,4.6854,4.6945,4.6974,4.7018,4.7022,4.7348,4.735,4.7387,0,0,0,4.6336,4.6317,4.6407,4.6388,4.656,4.6701,4.6576,4.6836,4.6866,4.6972,4.7018,4.7025,4.7347,4.7349,4.7383,4.741,0,0,0,4.6294,4.6313,4.6349,4.6386,4.6499,4.6697,4.6738,4.6844,4.6884,4.7014,4.7026,4.7346,4.7349,4.7379,4.7404,4.7488,0,0,0,4.6239,4.6377,4.6349,4.6514,4.6497,4.6719,4.6737,4.6904,4.7019,4.702,4.7347,4.735,4.7378,4.74,4.7484,4.7553,4.7579,0,0,4.6393,4.6394,4.6494,4.6477,4.6696,4.6681,4.6904,4.7042,4.7085,4.7259,4.7267,4.7384,4.7403,4.7487,4.7734,4.7754,0,0,0,4.6531,4.6602,4.6667,4.6777,4.6887,4.6983,4.7091,4.7141,4.7291,4.7168,4.7438,4.7451,4.7501,4.7536,4.7553,4.7598,4.7365,4.7364,4.7364,4.6699,4.6748,4.6916,4.6996,4.7102,4.7212,4.7301,4.7387,4.7405,4.7467,4.752,4.7664,4.7703,4.7716,4.7763,4.756,4.756,4.756,4.756,4.6929,4.7038,4.7058,4.7228,4.7277,4.7419,4.7529,4.7536,4.7674,4.7629,4.7675,4.7622,4.7737,4.778,4.7563,4.7563,4.7562,4.7562,4.7562,4.7045,4.7106,4.7166,4.733,4.7449,4.7524,4.7656,4.7696,4.7734,4.778,4.7839,4.7839,4.7843,4.7806,4.7806,4.7807,4.7807,4.7808,4.7808,4.7142,4.7209,4.7317,4.7444,4.7519,4.7623,4.7733,4.7807,4.7899,4.7918,4.7918,4.7928,4.774,4.7691,4.7816,4.7814,4.7813,4.7813,4.7812,4.7358,4.7315,4.7482,4.7557,4.7709,4.7824,4.7874,4.8021,4.8087,4.8151,4.8151,4.8005,4.8008,4.7994,4.7955,4.814,4.814,4.814,4.814,4.7456,4.7461,4.764,4.7758,4.7877,4.7939,4.8122,4.8207,4.8289,4.8333,4.8311,4.8262,4.8246,4.8259,4.824,4.8203,4.8448,4.8448,4.8448,4.7591,4.761,4.776,4.7842,4.7963,4.8065,4.8239,4.8371,4.8454,4.8462,4.8368,4.8355,4.8275,4.8247,4.8253,4.8223,4.8157,0,0]}]]